Regional Weather Roundup
Issued by NWS Sterling, VA

Home | Current Version | Previous Version | Graphics & Text | Print | Product List | Glossary On
Versions: 1 2 3 4 5 6 7 8 9 10 11 12 13 14 15 16 17 18 19 20 21 22 23 24 25 26 27
000
ASUS41 KLWX 271210
RWRLWX

REGIONAL WEATHER ROUNDUP
NATIONAL WEATHER SERVICE BALTIMORE MD/WASHINGTON DC
800 AM EDT FRI MAY 27 2016

Note: "FAIR" indicates few or no clouds below 12,000 feet
with no significant weather and/or obstructions to visibility.
 TC=TEMPERATURE CELSIUS

 * =Non NWS site. Station does not report precipitation (e.g. rain,
    snow, etc.), thunder, or fog.

DCZ001-MDZ009-015-VAZ040>042-051-053>054-271300-
WASHINGTON METRO

CITY           SKY/WX    TMP DP  RH WIND       PRES   REMARKS
WASHINGTON NAT FAIR      73  66  78 S8        30.09S
DULLES         FAIR      73  65  75 S6        30.09S
ANDREWS AFB    SUNNY     74  65  74 SW8       30.08S
FT BELVOIR     FAIR      73  66  77 S2        30.09S
QUANTICO       FAIR      72  66  81 S5        30.10R
COLLEGE PARK*  FAIR      73  64  73 CALM      30.08F
LEESBURG*      FAIR      72  70  94 CALM      30.10R
MANASSAS*      SUNNY     72  70  94 CALM      30.09S

$$

MDZ006>007-011-014-271300-
BALTIMORE METRO

CITY           SKY/WX    TMP DP  RH WIND       PRES   REMARKS
BWI AIRPORT    MOSUNNY   74  65  73 SW8       30.07F
MD SCIENCE CTR   N/A     75  64  68 MISG      30.07F
MARTIN STATE   MOSUNNY   73  70  88 SE5       30.08F
ANNAPOLIS      SUNNY     73  66  78 S6        30.07S
FORT MEADE*    SUNNY     68  64  88 SW3       30.10F

$$

MDZ012-015-019>023-271300-
MARYLAND EASTERN SHORE

CITY           SKY/WX    TMP DP  RH WIND       PRES   REMARKS
OCEAN CITY     SUNNY     69  64  84 S5        30.11R
SALISBURY      SUNNY     72  63  73 SW10      30.11R
BAY BRIDGE AP* SUNNY     73  66  78 SW7       30.08S
CAMBRIDGE*     SUNNY     72  64  78 S5        30.09S
EASTON*        SUNNY     75  70  83 SW9       30.12S

$$

MDZ017>025-271300-
SOUTHERN MARYLAND

CITY           SKY/WX    TMP DP  RH WIND       PRES   REMARKS
PATUXENT RIVER MOSUNNY   73  63  70 SW12      30.08S
ST INIGOES     SUNNY     73  64  73 SW9       30.09S
LEONARDTOWN*   SUNNY     72  63  73 SW8       30.11S

$$

MDZ003>005-271300-
NORTH CENTRAL MARYLAND

CITY           SKY/WX    TMP DP  RH WIND       PRES   REMARKS
FREDERICK*     SUNNY     73  70  88 SW5       30.11R
HAGERSTOWN APT MOSUNNY   72  65  78 S5        30.09R
WESTMINSTER*   SUNNY     73  70  88 SW7       30.09S

$$

MDZ501>502-271300-
WESTERN MARYLAND

CITY           SKY/WX    TMP DP  RH WIND       PRES   REMARKS
OAKLAND*       SUNNY     64  59  82 SW6       30.17S
CUMBERLAND*    CLOUDY    64  64 100 CALM      30.14R VSB 3/4

$$

VAZ025>031-271300-
SHENANDOAH VALLEY

CITY           SKY/WX    TMP DP  RH WIND       PRES   REMARKS
WINCHESTER*    FAIR      70  64  83 CALM      30.10R
FRONT ROYAL*   FAIR      72  64  78 S5        30.09S
LURAY*         FAIR      68  66  94 CALM      30.11S
NEW MARKET*    FAIR      68  65  88 SW5       30.10S
STAUNTON*      FAIR      65  63  90 CALM      30.13F
WAYNESBORO*    FAIR      66  62  86 CALM      30.13F

$$

WVZ021-048>050-054>055-271300-
EASTERN WEST VIRGINIA PANHANDLE

CITY           SKY/WX    TMP DP  RH WIND       PRES   REMARKS
MARTINSBURG    FAIR      69  64  84 S3        30.08S
PETERSBURG*    FOG       63  63 100 CALM      30.13R VSB 1/4

$$

VAZ036>039-050-271300-
CENTRAL FOOTHILLS

CITY           SKY/WX    TMP DP  RH WIND       PRES   REMARKS
CHARLOTTESVILL FAIR      72  64  76 CALM      30.10S
CULPEPER*      FAIR      71  67  87 CALM      30.10S
ORANGE*        FAIR      72  68  88 CALM      30.11S
GORDONSVILLE*  FAIR      71  66  84 SW3       30.09F
WARRENTON*     FAIR      72  62  71 S3        30.09S

$$

VAZ055>057-271300-
NORTH AND CENTRAL PIEDMONT

CITY           SKY/WX    TMP DP  RH WIND       PRES   REMARKS
FREDERICKSBRG* NOT AVBL
STAFFORD*      FAIR      72  65  80 SW5       30.13S

$$

NCZ024-NYZ072-PAZ021-071-VAZ022-071-271300-
OTHER REGIONAL OBSERVATIONS

CITY           SKY/WX    TMP DP  RH WIND       PRES   REMARKS
NEW YORK CITY  CLOUDY    75  61  61 CALM      30.09R
PHILADELPHIA   MOSUNNY   73  64  73 SW9       30.08R
PITTSBURGH     PTSUNNY   69  62  78 S5        30.07R
ROANOKE        FAIR      68  63  84 CALM      30.15S
RICHMOND       FAIR      71  62  73 SW9       30.11S
RALEIGH        MOSUNNY   71  62  73 SW10      30.16R

$$

ANZ530>537-271300-
MARINE OBSERVATIONS

STATION/POSITION TIME  TEMP    WIND        PRES
                       AIR SEA DIR/SP/G
                 (UTC) (F)     (DEG/KT/KT) (MB)
THOMAS PT LIGHT  1200   69 65  190/  7/  8 1019.9R
BALT KEY BRIDGE  1100   71     220/  2/  2 1018.4R
COVE POINT       1100   71     250/ 15/ 18 1018.9F
LEWISETTA        1100   71 67  240/ 11/ 13 1018.6R
SOLOMONS ISLAND  1100   71 66  220/ 13/ 16   N/A
PINEY POINT      1112          230/  4/  6   N/A

$$





USA.gov is the U.S. government's official web portal to all federal, state and local government web resources and services.